Content
SEND FEEDBACK

Daily
Averages
Monthly
Summary
China

GUILIN, CHINA


Home > Asia > China
Elevation: 512 feet     Latitude: 25 15N     Longitude: 110 10E

WEATHER
 
SELECT A DAY
Number of Records: 125,980;   Date Range: 11/4/98 - 9/22/14
 
SHARE

PRINT THIS DATA

[ ← Previous Day ]
WEATHER ALMANAC - FEBRUARY 13, 2013
[ Next Day → ]
[ °C ]   °F
Weather ElementAverageHighLow
Temperature43 °F44.6 °F (10:00 am)41 °F (3:00 pm)
Dewpoint37.6 °F41 °F (4:00 pm)33 °F (5:00 am)
Humidity79.7 %93 % (3:00 pm)55 % (5:00 am)
Barometer30.19 in30.30 in (2:00 am)30.09 in (4:00 pm)
Wind Speed3.5 mph6.7 mph (2:00 am)
Weather ElementAverage
Visibility2.7 mi
Wind DirectionNNE (21 °)

Weather ElementTotal
Precipitation---
Heating Degree Days22.2 (Base 65)
Averaged from 31 records on February 13, 2013
WEATHER CONDITIONS BREAKOUT
WIND DIRECTION BREAKOUT
WEATHER BY HOUR - FEBRUARY 13, 2013
[ °C ]   °F
Local TimeTemperatureDewpointHumidityBarometerVisibilityWind DirectionWind SpeedGust SpeedPrecipitationEventsConditions
1:00 AM42.8 °F37.4 °F81 %30.27 in2.8 miVariable2.2 mphOvercast
2:00 AM44.0 °F34.0 °F58 %30.30 in8.0 miNorth6.7 mphOvercast
2:00 AM42.8 °F37.4 °F81 %30.27 in2.8 miVariable2.2 mphOvercast
3:00 AM42.8 °F35.6 °F76 %30.24 in2.8 miENE (60°)2.2 mphOvercast
4:00 AM42.8 °F35.6 °F76 %30.21 in2.8 miNE (50°)4.5 mphOvercast
5:00 AM44.0 °F33.0 °F55 %30.25 in8.0 miNNE (20°)4.5 mphOvercast
5:00 AM42.8 °F35.6 °F76 %30.21 in3.7 miNE (50°)4.5 mphOvercast
6:00 AM42.8 °F35.6 °F76 %30.21 in3.1 miENE (60°)2.2 mphHaze
7:00 AM42.8 °F33.8 °F70 %30.24 in2.8 miVariable2.2 mphHaze
8:00 AM43.0 °F33.0 °F58 %30.28 in5.0 miNNE (20°)4.5 mphHaze
8:00 AM42.8 °F35.6 °F76 %30.24 in2.5 miVariable2.2 mphHaze
9:00 AM42.8 °F33.8 °F70 %30.24 in2.2 miVariable4.5 mphHaze
10:00 AM44.6 °F33.8 °F66 %30.27 inNE (50°)4.5 mphHaze
11:00 AM44.0 °F35.0 °F61 %30.29 in4.0 miNorth4.5 mphHaze
11:00 AM44.6 °F35.6 °F71 %30.24 in2.2 miNE (50°)6.7 mphHaze
12:00 PM44.6 °F35.6 °F71 %30.24 in2.2 miVariable4.5 mphHaze
1:00 PM42.8 °F37.4 °F81 %30.18 inVariable4.5 mphRainLight Rain
2:00 PM43.0 °F39.0 °F79 %30.18 in4.0 miNorth2.2 mphRainLight Rain
2:00 PM42.8 °F39.2 °F87 %30.15 in1.1 miENE (70°)4.5 mphLight Drizzle
3:00 PM41.0 °F39.2 °F93 %30.12 in0.4 miVariable2.2 mphFogLight Drizzle
4:00 PM42.8 °F41.0 °F93 %30.09 in0.6 miVariable2.2 mphFogLight Drizzle
5:00 PM42.0 °F40.0 °F91 %30.13 in4.0 miNNE (20°)2.2 mphRainLight Rain
5:00 PM42.8 °F41.0 °F93 %30.09 in0.6 miVariable2.2 mphFogLight Drizzle
6:00 PM42.8 °F41.0 °F93 %30.09 in0.6 miEast (80°)4.5 mphFogLight Drizzle
7:00 PM42.8 °F41.0 °F93 %30.09 in0.7 miVariable2.2 mphOvercast
8:00 PM43.0 °F41.0 °F90 %30.13 in3.0 miENE (70°)2.2 mphMist
8:00 PM42.8 °F41.0 °F93 %30.09 in0.7 miVariable2.2 mphOvercast
9:00 PM42.8 °F41.0 °F93 %30.09 in1.0 miVariable2.2 mphOvercast
10:00 PM42.8 °F41.0 °F93 %30.12 in1.1 miVariable4.5 mphOvercast
11:00 PM43.0 °F40.0 °F84 %30.15 in4.0 miNorth2.2 mphRainLight Rain
11:00 PM42.8 °F41.0 °F93 %30.12 in1.1 miNE (50°)4.5 mphOvercast
Hourly data recorded from ZGKL, located miles away from Guilin, China







STORIES FROM OUR PARTNERS